FW5395 Weather Reports


time (UTC)temp
C
wind
direction
speed
KPH
gust
KPH
rain 1hr
cm
rain 24hr
cm
rain mn
cm
humidity
%
barometer
mb
20260505163505 25 47 9.7 22.5 0.00 0.00 0.00 87 1016.5
20260505163006 25 58 4.8 22.5 0.00 0.00 0.00 86 1016.5
20260505162505 25 52 4.8 12.9 0.00 0.00 0.00 88 1016.5
20260505162005 25 51 3.2 12.9 0.00 0.00 0.00 89 1016.7
20260505161505 25 65 8.0 12.9 0.00 0.00 0.00 90 1016.9
20260505161026 25 59 3.2 9.7 0.00 0.00 0.00 92 1017.1
20260505160505 24 72 6.4 14.5 0.00 0.00 0.00 92 1017.0
20260505153005 24 58 4.8 9.7 0.00 0.00 0.00 89 1017.5
20260505152505 24 56 4.8 9.7 0.00 0.00 0.00 88 1017.5
20260505152005 24 22 6.4 9.7 0.00 0.00 0.00 89 1017.6
20260505151505 23 23 3.2 8.0 0.00 0.00 0.00 90 1017.8
20260505151005 23 18 4.8 9.7 0.00 0.00 0.00 90 1017.8
20260505150526 23 10 3.2 9.7 0.00 0.00 0.00 90 1018.0
20260505140504 22 14 6.4 12.9 0.00 0.00 0.00 93 1018.4
20260505125025 21 2 3.2 14.5 0.00 0.00 0.00 93 1018.4
20260505124504 21 32 3.2 14.5 0.00 0.00 0.00 93 1018.5
20260505124004 21 36 4.8 14.5 0.00 0.00 0.00 93 1018.2
20260505123504 21 42 6.4 16.1 0.00 0.00 0.00 93 1018.1
20260505123004 21 63 3.2 16.1 0.00 0.00 0.00 93 1018.2
20260505122504 21 74 4.8 14.5 0.00 0.00 0.00 94 1018.1
20260505122004 20 59 4.8 14.5 0.00 0.00 0.00 94 1018.3
20260505121504 20 52 3.2 9.7 0.00 0.00 0.00 94 1018.1
20260505121004 20 72 1.6 9.7 0.00 0.00 0.00 94 1018.2
20260505120504 20 71 4.8 9.7 0.00 0.00 0.00 94 1018.1
20260505120005 20 68 4.8 9.7 0.00 0.00 0.00 94 1018.0
20260505115525 19 94 3.2 9.7 0.00 0.00 0.00 94 1018.0
20260505115004 19 73 3.2 9.7 0.00 0.00 0.00 94 1018.2
20260505114504 19 56 3.2 9.7 0.00 0.00 0.00 94 1018.0
20260505114004 19 73 0.0 9.7 0.00 0.00 0.00 94 1017.9
20260505113504 18 75 3.2 9.7 0.00 0.00 0.00 94 1017.9
20260505112504 18 85 1.6 8.0 0.00 0.00 0.00 99 1004.9
20260505112005 18 74 3.2 4.8 0.00 0.00 0.00 99 1005.1
20260505111505 18 113 0.0 3.2 0.00 0.00 0.00 99 1005.1
20260505111004 18 113 0.0 3.2 0.00 0.00 0.00 99 1005.0
20260505110504 18 90 0.0 3.2 0.00 0.00 0.00 99 1005.2
20260505025004 19 29 6.4 14.5 0.00 0.00 0.00 94 1017.4
20260505024524 20 359 1.6 14.5 0.00 0.00 0.00 94 1017.4
20260505024005 20 7 3.2 16.1 0.00 0.00 0.00 94 1017.2
20260505023526 20 32 6.4 16.1 0.00 0.00 0.00 94 1017.2
20260505023005 20 33 11.3 16.1 0.00 0.00 0.00 94 1017.2
20260505022505 20 31 11.3 16.1 0.00 0.00 0.00 94 1017.1
20260505022005 20 37 4.8 20.9 0.00 0.00 0.00 93 1017.2
20260505021505 20 32 4.8 20.9 0.00 0.00 0.00 93 1017.2
20260505021005 20 31 8.0 20.9 0.00 0.00 0.00 93 1017.0
20260505020526 20 44 8.0 17.7 0.00 0.00 0.00 93 1017.0
20260505020005 20 27 8.0 17.7 0.00 0.00 0.00 93 1017.1
20260505015505 20 21 6.4 22.5 0.00 0.00 0.00 93 1017.0
20260505015005 20 14 8.0 22.5 0.00 0.00 0.00 93 1017.0
20260505014505 20 19 9.7 20.9 0.00 0.00 0.00 93 1017.1
20260505014005 19 25 8.0 17.7 0.00 0.00 0.00 94 1017.1
20260505013505 20 14 9.7 17.7 0.00 0.00 0.00 93 1017.0
20260505013005 19 360 6.4 17.7 0.00 0.00 0.00 93 1017.0
20260505012504 19 359 8.0 16.1 0.00 0.00 0.00 94 1017.0
20260505012005 19 10 4.8 16.1 0.00 0.00 0.00 94 1017.0
20260505011505 19 15 6.4 17.7 0.00 0.00 0.00 94 1016.9
20260505011005 19 19 8.0 17.7 0.00 0.00 0.00 93 1017.0
20260505010505 19 9 9.7 22.5 0.00 0.00 0.00 93 1016.9
20260505010005 19 12 4.8 22.5 0.00 0.00 0.00 93 1016.9
20260505005526 20 10 8.0 22.5 0.00 0.00 0.00 93 1016.8
20260505005005 20 20 4.8 17.7 0.00 0.00 0.00 92 1016.9
20260505004526 20 15 9.7 17.7 0.00 0.00 0.00 92 1016.7
20260505004005 19 360 1.6 17.7 0.00 0.00 0.00 92 1017.0
20260505003525 19 7 3.2 17.7 0.00 0.00 0.00 92 1016.8
20260505003005 19 17 8.0 14.5 0.00 0.00 0.00 91 1016.9
20260505002505 19 28 6.4 14.5 0.00 0.00 0.00 91 1016.9
20260505002005 19 43 3.2 12.9 0.00 0.00 0.00 92 1016.8
20260505001504 19 58 4.8 12.9 0.00 0.00 0.00 92 1016.6
20260505001004 18 315 0.0 4.8 0.00 0.00 0.00 92 1016.6
20260505000504 18 19 0.0 4.8 0.00 0.00 0.00 92 1016.5
20260505000004 18 40 0.0 3.2 0.00 0.00 0.00 92 1016.4
20260504235525 18 0 0.0 0.0 0.00 0.00 0.00 93 1016.5
20260504235004 18 0 0.0 0.0 0.00 0.00 0.00 93 1016.4
20260504234504 18 0 0.0 0.0 0.00 0.00 0.00 94 1016.3
20260504234004 17 0 0.0 0.0 0.00 0.00 0.00 93 1016.3
20260504233504 17 0 0.0 0.0 0.00 0.00 0.00 93 1016.3
20260504233025 17 67 0.0 3.2 0.00 0.00 0.00 93 1016.1
20260504232504 18 81 0.0 8.0 0.00 0.00 0.00 93 1016.1
20260504232025 18 73 0.0 8.0 0.00 0.00 0.00 92 1016.0
20260504231504 18 63 0.0 8.0 0.00 0.00 0.00 92 1015.9
20260504231004 17 68 0.0 8.0 0.00 0.00 0.00 91 1015.9
20260504230504 17 49 1.6 8.0 0.00 0.00 0.00 91 1015.9
20260504230025 17 0 0.0 0.0 0.00 0.00 0.00 92 1015.8
20260504225504 17 0 0.0 0.0 0.00 0.00 0.00 92 1015.7
20260504225004 17 180 0.0 8.0 0.00 0.00 0.00 92 1015.7
20260504224504 17 180 0.0 8.0 0.00 0.00 0.00 92 1015.7
20260504224025 17 0 0.0 0.0 0.00 0.00 0.00 92 1015.7
20260504223504 16 0 0.0 0.0 0.00 0.00 0.00 91 1015.7
20260504223004 17 0 0.0 0.0 0.00 0.00 0.00 91 1015.7
20260504222504 17 0 0.0 0.0 0.00 0.00 0.00 90 1015.5
20260504222004 17 0 0.0 0.0 0.00 0.00 0.00 90 1015.3
20260504221525 17 0 0.0 0.0 0.00 0.00 0.00 90 1015.3
20260504221004 17 0 0.0 0.0 0.00 0.00 0.00 89 1015.3
20260504220525 17 0 0.0 0.0 0.00 0.00 0.00 88 1015.2
20260504220004 18 0 0.0 0.0 0.00 0.00 0.00 87 1015.3
20260504215504 18 0 0.0 0.0 0.00 0.00 0.00 86 1015.3
20260504215004 18 90 0.0 3.2 0.00 0.00 0.00 85 1015.2
20260504214504 18 81 0.0 3.2 0.00 0.00 0.00 83 1015.3
20260504214004 19 78 0.0 3.2 0.00 0.00 0.00 81 1015.1
20260504213504 19 58 0.0 4.8 0.00 0.00 0.00 80 1015.0
20260504213004 19 78 0.0 9.7 0.00 0.00 0.00 79 1014.9
20260504212504 20 84 1.6 9.7 0.00 0.00 0.00 78 1014.8
20260504212004 20 87 1.6 9.7 0.00 0.00 0.00 77 1014.7
20260504211504 20 90 1.6 4.8 0.00 0.00 0.00 76 1014.7
20260504211025 20 0 0.0 0.0 0.00 0.00 0.00 76 1014.6
20260504210504 20 0 0.0 0.0 0.00 0.00 0.00 75 1014.8
20260504210004 21 0 0.0 0.0 0.00 0.00 0.00 73 1014.9
20260504205503 21 0 0.0 0.0 0.00 0.00 0.00 72 1014.9
20260504205003 21 0 0.0 0.0 0.00 0.00 0.00 71 1014.9
20260504204504 21 0 0.0 0.0 0.00 0.00 0.00 71 1015.0
20260504204004 21 0 0.0 0.0 0.00 0.00 0.00 68 1015.0
20260504203503 21 103 0.0 4.8 0.00 0.00 0.00 67 1014.9
20260504203025 22 97 0.0 4.8 0.00 0.00 0.00 68 1015.0
20260504202503 22 51 0.0 8.0 0.00 0.00 0.00 67 1015.2
20260504202003 22 33 0.0 9.7 0.00 0.00 0.00 66 1015.0
20260504201503 22 21 3.2 12.9 0.00 0.00 0.00 63 1015.1
20260504201003 22 53 4.8 16.1 0.00 0.00 0.00 62 1015.2
20260504200527 22 48 4.8 16.1 0.00 0.00 0.00 61 1015.2
20260504200027 22 42 6.4 12.9 0.00 0.00 0.00 62 1015.2
20260504195505 22 31 4.8 16.1 0.00 0.00 0.00 62 1015.3
20260504195006 22 22 11.3 16.1 0.00 0.00 0.00 61 1015.5
20260504194505 22 26 6.4 14.5 0.00 0.00 0.00 62 1015.4
20260504194027 23 25 6.4 14.5 0.00 0.00 0.00 63 1015.5
20260504193505 23 33 8.0 14.5 0.00 0.00 0.00 62 1015.6
20260504193005 23 40 3.2 14.5 0.00 0.00 0.00 62 1015.4
20260504192505 23 50 4.8 14.5 0.00 0.00 0.00 61 1015.4
20260504192026 23 28 6.4 14.5 0.00 0.00 0.00 60 1015.6
20260504191526 23 31 6.4 16.1 0.00 0.00 0.00 61 1015.6
20260504191005 23 63 8.0 16.1 0.00 0.00 0.00 59 1015.6
20260504190505 23 47 3.2 16.1 0.00 0.00 0.00 60 1015.5
20260504190005 23 21 3.2 17.7 0.00 0.00 0.00 59 1015.5
20260504185526 23 12 9.7 17.7 0.00 0.00 0.00 57 1015.5
20260504185005 23 27 6.4 14.5 0.00 0.00 0.00 57 1015.5
20260504184505 24 43 4.8 12.9 0.00 0.00 0.00 60 1015.5
20260504184005 24 12 1.6 9.7 0.00 0.00 0.00 60 1015.4
20260504183526 24 357 3.2 14.5 0.00 0.00 0.00 61 1015.5
20260504183005 23 334 4.8 14.5 0.00 0.00 0.00 60 1015.6
20260504182526 23 23 3.2 9.7 0.00 0.00 0.00 61 1015.5
20260504182005 23 40 4.8 14.5 0.00 0.00 0.00 61 1015.7
20260504181505 23 27 6.4 14.5 0.00 0.00 0.00 61 1015.9
20260504181026 23 34 4.8 12.9 0.00 0.00 0.00 62 1016.0
20260504180505 23 49 1.6 9.7 0.00 0.00 0.00 62 1016.0
20260504180005 23 63 6.4 9.7 0.00 0.00 0.00 61 1016.0
20260504175505 23 42 0.0 12.9 0.00 0.00 0.00 61 1016.1
20260504175005 23 19 0.0 12.9 0.00 0.00 0.00 62 1016.2
20260504174505 23 55 6.4 12.9 0.00 0.00 0.00 63 1016.3
20260504174026 23 66 6.4 14.5 0.00 0.00 0.00 64 1016.4
20260504173505 22 62 6.4 14.5 0.00 0.00 0.00 66 1016.4
20260504173005 22 27 3.2 14.5 0.00 0.00 0.00 64 1016.5
20260504172505 22 14 6.4 12.9 0.00 0.00 0.00 63 1016.7
20260504172005 22 352 3.2 12.9 0.00 0.00 0.00 63 1016.9
20260504171526 22 348 4.8 12.9 0.00 0.00 0.00 62 1016.8
20260504171005 22 10 3.2 12.9 0.00 0.00 0.00 62 1016.8
20260504170505 22 23 4.8 14.5 0.00 0.00 0.00 62 1016.8